Flag for Canada Weather past 2 weeks in Gander, Newfoundland and Labrador, Canada

Now
61 °F

Passing clouds.


Feels Like: 61 °F
Forecast: 47 / 65 °F
Wind: 18 mph from West

Location: Gander Int. Airport

Current Time: Sep 23, 2014 at 2:10:33 PM

Latest Report: Sep 23, 2014 at 1:30 PM


Visibility: 20 mi

Pressure: 29.77 "Hg

Humidity: 55%

Dew point: 45 °F

Location of GanderLocation

Historic Weather in Gander — Graph

°F

Gander temperature yesterday

Maximum temperature yesterday: 70 °F (at 11:30 AM)
Minimum temperature yesterday: 63 °F (at 12:30 AM)
Average temperature yesterday: 66 °F

Past Weeks' High & Low Weather Summary

 TemperatureHumidityPressure
High72 °F (Sep 12, 2:30 PM)100% (Sep 11, 3:30 AM)30.48 "Hg (Sep 11, 3:30 AM)
Low39 °F (Sep 14, 12:30 AM)39% (Sep 9, 2:30 PM)29.50 "Hg (Sep 22, 5:19 PM)
Average55 °F78%30.02 "Hg
* Reported Sep 8 12:30 PM — Sep 23 12:30 PM, Gander, Weather by CustomWeather, © 2014

Note: Actual official high and low records may vary slightly from our data, if they occured in-between our weather recording intervals... More about our weather records

Advertising

Gander weather history for previous 24 hours

 ConditionsComfort  
Time TempWeatherWind HumidityBarometerVisibility
12:30 PM
Sep 23
59 °FScattered clouds.17 mph63%29.74 "Hg20 mi
11:30 AM61 °FBroken clouds.21 mph63%29.72 "Hg20 mi
10:30 AM59 °FPartly sunny.24 mph68%29.70 "Hg20 mi
9:30 AM59 °FScattered clouds.22 mph68%29.67 "Hg20 mi
8:30 AM61 °FScattered clouds.22 mph72%29.66 "Hg20 mi
7:30 AM61 °FPartly sunny.20 mph77%29.64 "Hg15 mi
6:30 AM61 °FPassing clouds.18 mph83%29.62 "Hg15 mi
5:30 AM63 °FPassing clouds.18 mph83%29.61 "Hg15 mi
4:30 AM63 °FPassing clouds.20 mph83%29.60 "Hg15 mi
3:30 AM63 °FPassing clouds.21 mph83%29.58 "Hg15 mi
2:30 AM63 °FPassing clouds.22 mph83%29.59 "Hg15 mi
1:30 AM63 °FPassing clouds.26 mph88%29.60 "Hg15 mi
12:30 AM63 °FPartly cloudy.17 mph88%29.60 "Hg15 mi
11:30 PM
Sep 22
64 °FPassing clouds.18 mph94%29.60 "Hg15 mi
10:30 PM66 °FPassing clouds.12 mph88%29.60 "Hg15 mi
9:30 PM66 °FOvercast.18 mph94%29.58 "Hg15 mi
8:30 PM68 °FOvercast.23 mph94%29.56 "Hg15 mi
7:30 PM68 °FLight rain. Fog.22 mph94%29.53 "Hg4 mi
6:30 PM70 °FLight rain. Fog.30 mph94%29.51 "Hg5 mi
5:30 PM68 °FLight rain. Fog.37 mph94%29.50 "Hg3 mi
5:19 PM68 °FLight rain. Fog.33 mph94%29.50 "Hg3 mi
4:30 PM68 °FLight rain. Fog.38 mph94%29.52 "Hg3 mi
3:30 PM68 °FLight rain. Fog.33 mph94%29.58 "Hg5 mi
2:30 PM66 °FLight rain. Fog.39 mph94%29.64 "Hg5 mi
Weather by CustomWeather, © 2014

See weather overviewHow to use our weather pages